Simultaneous Nadir Overpasses (SNOs) Predictions

Prediction of SNOs near US between AQUA and NPP Satellite Orbit:

Table of predicted SNOs near US for the next 10.0 days since TLE Epoch: 9/21/2013
Index Date (AQUA) Time (AQUA) AQUA Lat,Lon Date (NPP) Time (NPP) NPP Lat,Lon Distance(km) Time Diff (sec)
1 09/21/2013 07:18:59 49.89, -76.05 09/21/2013 07:21:03 50.30, -78.23 161.60 124
2 09/21/2013 08:57:52 49.90,-100.77 09/21/2013 09:02:30 50.47,-103.53 206.06 278
3 09/23/2013 18:17:08 49.95, -80.23 09/23/2013 18:11:20 49.66, -81.83 119.38 348
4 09/23/2013 19:56:02 50.00,-104.97 09/23/2013 19:52:49 49.60,-107.18 164.55 193
5 09/23/2013 21:31:08 36.46,-124.99 09/23/2013 21:30:24 35.99,-127.59 239.33 44
6 09/26/2013 09:23:35 24.21,-113.32 09/26/2013 09:16:24 24.32,-113.72 42.51 431
7 09/29/2013 06:30:31
